Погода в Глебовском

Россия / Ярославская область     56°39′31″N   38°42′10″E
темп.,
°C
ветер,
м/с
пор.,
м/с
влажн.,
%
обл.,
%
осадки,
мм/ч
давл.,
гПа
погр.,
м
7 мая, пт
пт700:00+6юз41091100 0.0 1006519
03:00+5юз499363 0.0 1007494
06:00+5юз3992100 0.0 1008616
09:00+7зюз4674100 0.0 1009930
12:00+11зюз685572 0.6 10101808
15:00+13зюз583883 0.8 10102698
18:00+12юз47511 0.0 10111248
21:00+7ю357237 0.0 101283
8 мая, сб
сб800:00+6ю41372100 0.0 1012329
03:00+7ююв41468100 0.0 1012388
06:00+7ююв51368100 0.0 1011745
09:00+8ююв61584100 0.5 10101286
12:00+8ююв61392100 2.8 10081289
15:00+8ююв51395100 7.2 10061352
18:00+8юв31096100 4.0 1004733
21:00+7вюв0199100 5.3 100319
9 мая, вс
вс900:00+7сз2599100 2.3 1003244
03:00+7ссз3898100 3.9 1003512
06:00+5ссз51197100 1.9 1005633
09:00+3сз61397100 4.4 1008686
12:00+3ссз61497100 3.1 1012766
15:00+8ссз6118185 3.9 10141268
18:00+8ссз510764 0.3 10171320
21:00+4сз22900 0.3 102127
10 мая, пн
пн1000:00+2сз22891 0.0 102337
03:00+1сз22885 0.0 102630
06:00+3сз23835 0.0 102883
09:00+10с12555 0.0 1029615
12:00+14с123933 0.0 10291313
15:00+15ссз22365 0.0 10291513
18:00+14ссз12545 0.0 1029369
21:00+8в11693 0.0 103010
11 мая, вт
вт1100:00+7юв22710 0.0 103110
03:00+6вюв11727 0.0 103210
06:00+8всв117278 0.0 103230
09:00+13вюв3458100 0.0 1032436
12:00+16в3450100 0.0 1032858
15:00+17в3552100 0.0 10301054
18:00+16всв2468100 0.0 1030192
21:00+11вюв3583100 0.0 103070